Temp_Advection
nan nan nan nan nan nan nan nan nan nan nan nan nan nan nan nan nan nan nan nan nan nan nan nan nan nan nan nan nan nan nan nan nan nan nan nan nan nan nan nan nan nan nan nan nan nan nan
nan -0 0 0 0 0 0 0 0 0 0 0 0 0 -0 -0 -0 -0 -0 -0 0 0 0 0 -0 0 -0 -0 0 0 -0 -0 -0 -0 -0 -0 0 0 -1 -2 -1 -0 -0 -0 0 -0 nan
nan 0 0 0 0 0 0 0 0 0 0 0 0 0 0 0 0 0 0 0 0 0 0 0 0 0 -0 -0 0 0 0 -0 -0 -0 -0 0 0 -0 0 -1 -2 -0 -0 -0 -0 -0 nan
nan 0 0 0 0 0 0 0 0 0 0 0 0 0 0 0 0 0 0 0 0 -0 0 0 0 -0 -0 -0 0 0 0 -0 -0 -0 -0 0 -0 0 1 -4 0 0 0 -0 0 0 nan
nan -0 -0 0 0 0 0 -0 0 0 0 0 0 0 0 0 0 0 0 0 0 0 0 0 0 -0 -0 0 0 0 0 0 -0 -0 0 0 0 0 -0 -1 1 0 0 -1 0 -0 nan
nan -0 0 0 0 0 0 0 0 0 0 0 0 0 0 0 0 0 0 0 0 0 0 0 0 -0 -0 0 0 0 0 0 -0 -0 -0 0 0 -0 -0 -1 -0 -1 -1 -0 -0 0 nan
nan -0 -0 -0 0 0 0 0 0 0 0 -0 0 0 0 0 0 0 -0 -0 -0 -0 -0 -0 0 -0 -0 -0 -0 0 0 0 0 0 -0 -0 -0 -0 -1 -2 -1 -1 -0 -0 0 0 nan
nan -0 -0 -0 -0 -0 -0 -0 0 0 0 0 -0 0 0 0 0 0 -0 -0 -0 -0 -0 0 0 -0 -0 0 -0 0 -0 0 0 0 0 -0 -0 0 -0 -1 -1 -0 -0 0 -0 0 nan
nan -0 -0 -0 -0 -0 -0 -0 -0 0 0 0 -0 0 0 0 0 0 0 0 0 -0 -0 0 0 0 -0 -0 0 0 0 0 -0 -0 0 0 0 -0 -0 -0 -1 -0 -0 -0 -0 -0 nan
nan 0 -0 -0 -0 -0 -0 -0 -0 -0 0 0 0 0 0 0 -0 -0 0 0 0 -0 0 0 0 0 0 -0 -0 0 0 -0 0 -0 -0 -0 -0 -0 0 -0 -2 0 0 -0 -0 -1 nan
nan -0 -0 -0 0 0 0 -0 -0 -0 -0 0 0 0 0 0 0 -0 0 0 0 -0 -0 0 -0 0 0 0 -0 0 0 0 -0 -0 0 0 0 0 0 -1 -1 0 0 1 0 0 nan
nan -0 -0 0 -0 0 0 -0 -0 -0 -0 0 0 0 0 0 0 0 0 0 -0 -0 -0 0 -0 0 0 0 0 0 0 0 -0 0 0 -0 -0 -0 -0 -0 -0 1 0 0 0 0 nan
nan -0 -0 0 -0 -0 0 -0 -0 -0 -0 0 0 0 0 0 0 0 -0 -0 -0 0 -0 0 0 -0 -0 -0 0 -0 -0 -0 0 0 -0 0 -0 0 0 0 0 -0 -0 -0 0 0 nan
nan -0 -0 0 0 -0 -0 -0 -0 -0 -0 -0 0 0 0 0 0 -0 0 -0 0 -0 -0 -0 -0 0 -0 -0 -0 -0 0 0 0 0 -0 0 0 0 -0 -0 0 0 0 -0 -0 0 nan
nan -0 -0 -0 0 0 0 -0 -0 -0 -0 -0 0 0 0 0 0 0 -0 -0 -0 0 0 0 -0 0 -0 -0 -0 -0 -0 0 -0 0 0 -0 0 -0 0 -0 -0 0 0 0 -0 0 nan
nan -0 -0 -0 0 0 0 0 -0 -0 -0 -0 0 0 0 0 0 0 -0 -0 0 0 -0 -0 0 0 0 -0 -0 -0 -0 -0 -0 -0 -0 -0 -0 0 0 -0 0 -0 0 0 0 -0 nan
nan -0 -0 -0 -0 -0 0 0 -0 -0 -0 0 0 -0 0 0 -0 -0 -0 0 0 -0 -0 -0 -0 -0 -0 0 -0 -0 -0 -0 -0 -0 -0 0 0 -0 -0 -0 0 0 -0 0 0 -0 nan
nan -0 -0 -0 -0 -0 0 0 -0 -0 -0 0 0 0 0 0 -0 -0 -0 0 -0 -0 -0 -0 -0 -0 -0 0 -0 -0 -0 0 -0 -0 -0 0 0 -0 -0 0 -0 -0 0 0 -0 -0 nan
nan 0 0 -0 -1 -0 0 -0 -0 0 0 0 0 0 0 0 -0 -0 -0 -0 -0 0 -0 -0 -0 -0 -0 -0 0 0 0 -0 -0 -0 -0 0 0 -0 -0 -0 -0 -0 -0 0 0 0 nan
nan 0 -0 0 -0 -1 -0 -0 -0 -0 0 0 -0 -0 -0 -0 -0 -0 -0 -0 0 0 -0 -0 -0 -0 -0 0 -0 -0 0 0 0 0 -0 -0 0 -0 0 0 -0 0 -0 -0 -0 -0 nan
nan 0 0 0 -0 -1 -0 -0 -0 -0 0 0 -0 0 -0 -0 -0 0 0 -0 -0 0 0 -0 -0 -0 -0 0 0 0 -0 -0 -0 0 0 -0 0 -0 -0 -0 -0 -0 -0 -0 0 0 nan
nan 0 0 0 0 -0 -1 -0 -0 -0 0 0 -0 0 0 0 0 -0 -0 -0 0 0 0 0 0 0 -0 -0 0 0 0 0 0 -0 0 -0 0 -0 -0 -0 -0 -0 -0 -0 0 0 nan
nan 0 0 0 0 -0 -1 -0 0 0 -0 -0 -0 0 -0 -0 -0 -0 -0 0 0 0 0 0 -0 -0 0 0 0 -0 0 -0 -0 -0 0 -0 0 0 0 0 -0 -0 0 0 -0 -0 nan
nan 0 0 0 -0 0 -0 0 0 0 -0 -0 -0 0 -0 -0 0 0 0 0 0 0 0 0 0 0 0 0 -0 0 0 0 -0 -0 -0 0 -0 0 -0 -0 -0 -0 -0 -0 -0 -0 nan
nan -0 0 0 0 0 0 -0 -0 -0 -0 -0 -0 0 -0 0 0 0 0 0 -0 0 0 0 0 0 0 -0 -0 -0 -0 -0 -0 0 0 -0 0 -0 -0 -0 0 0 0 0 0 -0 nan
nan -0 0 0 0 0 0 -0 -0 -0 -0 -0 -0 -0 -0 -0 0 0 -0 -0 -0 -0 -0 0 0 0 0 -0 -0 -0 -0 0 -0 -0 -0 0 0 -0 0 -0 -0 -0 -0 0 -0 -0 nan
nan -1 0 0 0 0 0 0 -0 -0 -0 -0 -0 0 0 -0 -0 -0 0 -0 0 0 -0 -0 -0 0 -0 -0 -0 -0 0 -0 -0 0 -0 -0 -0 -0 -0 -0 -0 0 -0 -0 -0 -0 nan
nan -0 -0 0 1 0 0 0 -0 -0 -0 -0 -0 0 0 -0 -0 0 0 0 -0 -0 0 -0 -0 -0 0 -0 0 0 0 0 0 -0 0 -0 -0 -0 -0 -0 0 0 0 -0 -0 -0 nan
nan nan nan nan nan nan nan nan nan nan nan nan nan nan nan nan nan nan nan nan nan nan nan nan nan nan nan nan nan nan nan nan nan nan nan nan nan nan nan nan nan nan nan nan nan nan nan
Wind_Speed
4 4 4 4 4 4 6 7 7 7 8 10 11 11 10 8 7 9 12 15 16 17 17 13 10 6 5 4 12 15 15 10 10 13 18 18 18 18 9 23 21 21 12 25 12 8 9
5 5 4 5 5 5 6 7 7 8 9 10 11 10 9 7 7 9 12 16 18 16 14 10 8 6 4 10 10 15 19 19 15 10 13 17 12 11 9 17 23 20 21 17 17 9 7
6 5 5 6 5 5 6 7 8 9 10 10 11 11 11 10 11 12 15 19 19 14 12 7 6 6 9 12 14 18 18 24 18 15 11 14 16 13 4 16 30 13 21 8 17 9 7
6 6 7 7 7 7 8 8 9 10 11 12 12 13 13 15 16 17 19 21 18 11 8 5 4 8 8 10 16 20 19 17 24 13 13 13 14 6 17 25 27 12 19 14 16 10 6
6 7 8 8 8 8 9 10 11 12 13 14 14 15 15 15 16 19 20 19 15 8 7 5 5 7 8 12 19 22 17 13 13 15 12 19 13 5 7 11 12 15 13 22 10 11 5
6 7 8 9 9 10 11 12 12 12 13 14 15 16 16 16 15 16 17 15 10 4 5 5 5 5 3 13 19 18 15 11 10 17 14 10 5 4 3 7 11 18 17 20 13 10 10
5 6 7 8 10 11 13 14 13 13 13 14 15 16 15 14 14 14 15 8 3 1 4 2 6 6 10 17 11 13 12 9 22 14 6 6 4 6 10 18 8 20 19 21 8 5 12
5 6 7 7 9 11 13 14 14 13 13 13 14 14 13 11 12 12 9 3 2 2 4 5 7 8 8 13 6 14 9 2 1 5 8 3 8 6 4 7 8 16 17 16 7 6 6
5 6 8 8 8 10 12 13 14 13 12 12 12 12 11 10 10 6 4 3 2 3 2 4 6 7 5 9 6 8 6 2 3 3 2 4 1 2 9 8 9 15 18 14 14 9 5
6 6 7 7 8 10 11 12 12 12 11 10 10 9 8 8 4 5 4 3 4 2 2 5 4 3 4 6 3 10 11 2 2 2 2 1 5 5 11 7 17 12 8 13 17 17 10
9 7 7 7 7 9 10 12 12 12 10 9 7 6 6 6 4 3 3 3 2 0 2 8 4 7 7 4 7 3 9 6 2 3 3 3 1 4 6 8 9 5 9 11 16 13 11
10 8 7 6 6 7 9 12 13 12 9 7 5 3 4 5 3 2 3 1 1 3 3 4 3 5 5 1 2 5 5 2 1 2 5 3 3 1 2 1 1 12 10 6 5 5 8
11 10 8 7 7 7 9 11 13 11 8 6 4 3 2 3 2 1 1 1 2 2 1 4 2 1 5 4 3 4 5 3 3 2 4 3 4 3 2 7 4 3 13 3 4 2 7
12 12 10 9 8 7 8 10 12 10 7 5 3 3 1 2 1 0 1 2 1 2 2 2 2 1 3 4 2 4 4 3 2 2 3 3 3 6 5 3 3 7 5 3 5 7 5
15 13 12 10 9 8 7 9 11 10 6 4 2 3 2 2 1 2 0 1 0 3 1 2 2 0 1 2 3 1 3 2 1 3 3 3 2 2 2 2 1 5 5 2 5 2 4
17 15 13 12 11 10 8 8 9 10 6 3 2 3 3 3 2 2 2 2 2 3 2 2 2 1 4 2 3 3 1 1 2 3 4 1 3 2 1 2 8 2 6 3 1 5 6
20 16 15 14 13 11 9 8 8 9 7 2 3 2 3 4 3 1 2 2 3 7 5 3 2 2 2 3 3 1 1 2 2 2 3 1 2 2 1 3 3 3 3 4 1 2 4
23 20 16 15 15 13 10 8 7 8 7 2 3 2 6 5 3 1 2 3 2 3 4 4 3 3 3 2 2 2 2 2 3 3 2 1 1 3 1 1 2 1 0 1 1 3 1
25 21 18 17 16 14 12 9 7 7 6 3 3 2 6 6 2 2 2 2 3 3 4 3 4 4 1 2 3 2 2 1 4 2 2 1 0 4 2 2 1 2 1 2 4 0 0
23 26 21 18 17 15 14 11 7 7 7 5 3 2 2 6 4 3 2 3 3 3 3 4 3 3 2 2 1 2 2 1 1 2 4 2 1 5 7 2 2 3 4 3 1 2 2
20 23 24 20 18 15 15 12 9 7 6 6 4 2 3 2 5 4 2 1 3 3 4 3 3 4 2 2 2 2 2 2 1 4 3 2 0 1 1 2 0 1 4 8 7 3 5
20 23 26 22 19 17 15 12 10 7 5 8 3 3 2 1 1 5 4 4 6 3 3 3 4 1 2 3 2 1 3 2 1 1 1 1 1 1 2 1 2 3 5 6 9 3 6
20 21 25 24 21 19 16 12 11 8 6 6 5 4 2 2 3 3 3 3 5 4 3 2 2 1 3 1 2 3 1 2 2 1 2 1 2 1 1 1 2 6 12 12 6 7 8
22 21 20 27 23 20 17 13 12 10 8 8 6 4 3 2 4 4 2 4 4 4 1 2 2 2 1 8 5 5 5 5 5 6 3 3 3 0 0 2 4 1 2 3 11 5 14
30 22 20 24 24 21 19 16 13 12 10 9 7 6 4 3 4 3 5 3 3 1 1 2 2 3 10 0 2 2 2 2 1 3 2 1 2 2 2 3 5 2 4 4 5 1 8
27 32 23 21 23 24 20 17 16 13 11 9 9 8 5 2 4 2 4 6 3 3 2 1 2 6 5 0 1 2 2 0 2 2 1 2 1 2 2 3 3 2 1 2 1 3 4
12 32 30 24 23 24 23 19 16 15 13 10 9 9 6 3 4 7 3 4 5 2 1 2 4 4 3 2 3 3 2 0 2 2 4 3 2 5 3 3 6 3 4 4 4 3 2
17 24 37 29 26 25 26 21 17 16 14 11 9 10 9 5 6 9 7 4 4 4 3 5 4 3 2 4 3 2 3 2 2 1 3 5 6 3 2 3 5 8 6 3 3 2 2
16 20 35 33 29 27 27 23 19 15 14 12 10 10 10 7 5 7 10 10 9 5 4 10 2 3 5 2 2 2 3 2 2 2 1 3 3 1 6 3 2 10 0 5 2 1 2
Wind_Direction
314 327 298 320 338 310 316 338 339 337 330 329 329 337 346 349 352 351 351 344 336 332 334 331 335 356 13 249 253 261 269 280 259 247 228 217 217 219 225 204 220 217 216 222 240 267 245
270 282 283 302 327 328 331 328 335 336 329 327 326 326 334 339 341 339 339 340 337 326 324 325 328 330 307 273 280 288 277 265 259 264 244 229 214 198 323 249 212 205 218 224 227 249 225
273 283 291 293 305 320 321 325 327 329 328 328 321 315 306 307 313 319 326 332 330 325 317 312 332 320 286 277 309 316 319 257 250 252 250 225 209 205 178 226 215 218 202 223 216 217 214
278 278 284 292 294 296 306 313 318 319 318 318 317 316 306 298 301 303 312 320 321 315 318 308 311 302 271 305 317 323 312 283 245 246 226 222 195 202 215 279 184 187 200 198 194 191 209
285 279 278 285 293 298 299 303 310 311 311 311 311 311 309 308 306 304 311 315 317 312 299 304 301 301 287 320 327 320 318 276 233 227 205 198 200 195 330 245 170 192 184 198 172 202 176
301 292 283 279 287 293 293 297 301 306 311 311 314 313 312 305 307 310 315 315 314 307 314 297 292 294 284 318 328 325 331 292 163 167 172 168 173 143 227 240 169 184 190 191 188 180 200
312 314 302 292 289 289 291 293 298 303 307 314 319 318 317 313 308 314 320 334 336 280 21 17 304 277 301 330 324 339 359 148 148 158 164 162 175 205 200 225 231 177 180 180 155 161 181
307 322 322 317 309 299 294 294 298 302 307 313 318 323 325 323 315 321 323 326 306 299 302 316 325 295 313 342 310 347 46 66 69 142 133 154 225 199 205 287 241 197 178 174 136 156 198
282 306 313 315 315 311 308 301 299 303 309 315 320 326 330 329 324 339 334 303 280 333 288 300 323 311 322 339 325 330 352 352 183 129 100 191 132 279 189 219 221 199 186 170 152 141 100
275 283 301 311 308 315 318 315 313 308 312 315 320 330 337 336 353 340 318 290 280 305 296 324 338 301 337 319 282 349 355 308 343 56 159 44 297 214 172 190 222 181 195 167 153 161 164
270 268 285 303 306 313 322 326 325 318 314 315 319 327 340 342 329 344 316 296 267 162 304 342 317 319 329 3 309 14 352 349 357 64 307 28 36 84 123 208 217 139 156 160 167 163 151
257 261 269 287 299 309 322 330 331 325 316 314 308 304 340 341 344 320 323 283 135 249 21 349 322 344 321 26 313 311 346 359 311 41 68 69 222 270 184 275 217 145 121 102 123 149 188
247 254 252 268 282 302 320 331 335 331 322 313 287 259 318 327 340 296 359 141 265 20 152 359 316 286 322 356 11 25 359 330 339 279 29 32 327 330 7 86 114 210 143 127 159 196 167
243 250 245 253 269 289 311 327 337 338 339 332 266 223 281 308 330 136 134 250 38 226 257 128 173 356 336 336 17 9 342 348 340 288 77 43 98 5 354 16 164 144 165 174 135 167 132
243 244 243 244 258 276 300 321 334 339 332 344 245 217 232 282 218 149 201 292 262 217 311 275 183 307 178 261 291 272 256 311 233 226 45 120 45 321 349 355 287 171 175 354 95 71 168
237 240 242 239 247 262 285 309 326 337 331 321 235 208 240 217 188 142 249 271 237 226 225 225 3 320 355 103 212 226 270 284 219 203 219 165 116 27 9 288 60 306 138 139 39 156 172
234 233 241 240 244 250 268 290 315 334 336 287 192 199 213 197 180 183 260 247 234 232 223 229 304 286 293 307 276 235 213 260 354 23 207 192 284 109 293 11 138 154 142 65 64 340 195
231 232 235 243 244 242 254 274 300 324 334 242 188 231 195 182 230 213 235 205 219 226 214 253 252 264 283 292 246 259 249 260 6 329 289 113 85 122 45 346 312 327 127 148 327 149 18
224 232 232 242 244 238 243 256 281 307 326 230 197 180 193 186 248 206 216 250 242 205 224 215 236 226 252 279 285 246 228 335 350 319 352 109 204 128 190 194 201 241 84 86 96 61 238
226 224 227 238 244 241 237 245 257 291 311 215 189 192 179 205 255 261 206 226 240 228 254 222 275 233 227 252 232 298 245 221 339 113 17 281 132 235 205 180 109 179 179 189 241 224 132
240 231 223 229 240 245 237 237 244 268 293 204 210 221 192 200 224 213 190 227 217 227 229 230 223 246 243 264 270 272 295 307 57 19 24 342 331 42 30 51 13 300 191 192 200 210 235
235 233 220 223 232 242 244 227 235 250 264 216 225 192 211 255 184 200 188 210 214 201 207 216 246 168 228 242 253 295 205 240 236 57 356 44 112 155 182 28 1 260 236 214 224 231 267
232 239 222 220 222 233 244 223 229 235 246 230 223 232 198 165 182 213 212 195 210 189 202 235 281 223 189 242 296 281 239 29 353 298 168 349 148 188 219 360 283 255 226 202 193 202 204
227 238 234 220 219 221 237 224 223 228 234 237 231 212 182 236 218 218 218 201 199 215 248 180 190 250 138 131 92 78 76 82 63 40 14 165 145 127 297 219 220 60 73 256 223 227 215
223 231 234 224 218 213 226 235 222 226 231 237 231 209 206 262 229 226 202 179 139 149 191 191 194 200 164 297 233 203 200 201 113 29 30 334 193 148 229 226 309 200 204 181 189 212 222
224 224 226 226 220 212 218 227 223 225 227 232 225 220 223 271 225 181 166 189 187 185 180 192 147 160 169 157 236 238 224 274 191 177 150 95 100 263 174 247 257 53 145 191 233 232 157
283 221 222 222 217 214 214 222 230 223 227 225 226 218 218 240 246 184 197 183 170 154 132 154 168 167 185 193 222 228 220 301 230 219 169 162 170 217 197 270 277 170 143 149 197 83 331
273 228 217 220 219 214 212 217 224 228 227 222 225 218 213 238 260 223 219 186 173 188 196 149 147 178 146 213 228 196 227 181 236 202 194 192 178 185 160 216 271 149 121 210 66 55 353
328 246 218 218 220 216 211 210 218 228 224 222 225 220 223 237 259 240 231 228 220 213 196 177 313 168 174 159 206 147 210 185 230 259 221 225 222 208 222 231 48 194 228 193 196 121 13
Height
1545 1544 1544 1543 1542 1541 1540 1538 1537 1535 1534 1533 1531 1530 1528 1526 1525 1523 1521 1519 1516 1513 1510 1507 1505 1503 1502 1503 1500 1497 1496 1497 1497 1497 1498 1500 1502 1503 1504 1505 1503 1502 1499 1500 1499 1500 1501
1543 1542 1542 1542 1541 1539 1538 1537 1536 1534 1533 1531 1530 1528 1527 1525 1524 1522 1519 1517 1515 1512 1508 1506 1504 1503 1502 1501 1495 1496 1493 1493 1494 1495 1495 1498 1499 1500 1502 1501 1496 1496 1499 1496 1497 1498 1498
1541 1540 1540 1540 1539 1538 1536 1535 1534 1533 1531 1530 1528 1526 1525 1524 1522 1520 1518 1516 1513 1509 1506 1505 1503 1502 1500 1498 1493 1492 1487 1488 1489 1492 1494 1495 1497 1499 1502 1500 1493 1492 1496 1496 1494 1496 1494
1539 1539 1539 1538 1537 1536 1534 1533 1532 1531 1529 1528 1526 1524 1523 1521 1519 1517 1516 1513 1510 1507 1505 1503 1501 1500 1496 1492 1490 1488 1485 1481 1484 1488 1491 1492 1495 1496 1498 1495 1484 1489 1489 1491 1486 1493 1492
1536 1536 1536 1536 1535 1533 1532 1531 1529 1528 1527 1525 1523 1521 1520 1518 1516 1514 1512 1510 1507 1505 1503 1502 1501 1499 1495 1491 1488 1484 1479 1476 1480 1485 1488 1491 1494 1493 1499 1498 1479 1480 1483 1481 1486 1489 1489
1535 1535 1534 1533 1532 1531 1530 1528 1527 1525 1524 1522 1520 1518 1517 1515 1513 1511 1509 1508 1505 1504 1502 1501 1500 1500 1494 1492 1487 1482 1476 1473 1477 1483 1488 1490 1492 1495 1499 1485 1474 1475 1472 1475 1477 1485 1488
1533 1533 1532 1531 1530 1528 1527 1526 1524 1523 1521 1519 1517 1516 1514 1512 1510 1508 1507 1506 1507 1506 1502 1503 1501 1497 1494 1491 1486 1481 1478 1475 1476 1481 1481 1485 1486 1484 1487 1486 1464 1463 1464 1471 1477 1484 1483
1532 1531 1530 1529 1527 1526 1524 1523 1521 1520 1518 1516 1515 1513 1511 1509 1507 1506 1506 1506 1505 1506 1503 1501 1498 1495 1494 1492 1487 1483 1481 1481 1478 1478 1481 1485 1479 1481 1484 1482 1477 1466 1464 1469 1480 1482 1479
1529 1529 1528 1527 1525 1524 1522 1520 1518 1517 1515 1514 1512 1511 1509 1507 1506 1505 1505 1505 1504 1504 1504 1501 1498 1495 1494 1492 1489 1485 1483 1479 1480 1480 1481 1478 1479 1481 1480 1481 1474 1465 1462 1470 1472 1479 1482
1526 1526 1526 1525 1523 1522 1520 1518 1516 1514 1513 1511 1510 1509 1507 1506 1506 1505 1505 1504 1504 1504 1503 1503 1498 1496 1494 1491 1489 1486 1483 1483 1479 1479 1481 1482 1480 1478 1478 1483 1472 1466 1462 1466 1469 1467 1479
1523 1523 1523 1523 1522 1520 1518 1516 1513 1511 1510 1509 1508 1507 1506 1504 1504 1504 1505 1504 1503 1504 1489 1502 1499 1496 1492 1493 1491 1487 1485 1482 1479 1480 1482 1482 1481 1476 1478 1475 1468 1464 1467 1467 1465 1463 1473
1520 1520 1520 1520 1520 1518 1516 1514 1511 1509 1507 1506 1505 1505 1505 1505 1504 1504 1503 1503 1504 1504 1492 1503 1500 1496 1493 1492 1490 1487 1486 1485 1483 1482 1479 1480 1480 1480 1474 1474 1469 1471 1468 1475 1473 1471 1477
1517 1517 1517 1517 1517 1516 1515 1512 1510 1507 1505 1504 1503 1504 1503 1503 1504 1502 1502 1504 1503 1495 1502 1501 1500 1497 1493 1490 1488 1488 1487 1483 1481 1479 1478 1481 1476 1473 1473 1468 1470 1469 1466 1487 1487 1485 1475
1513 1514 1514 1514 1515 1514 1513 1511 1509 1506 1504 1502 1502 1502 1503 1502 1502 1502 1503 1505 1495 1499 1496 1497 1499 1500 1495 1493 1489 1489 1491 1486 1483 1480 1480 1479 1480 1474 1475 1472 1467 1468 1466 1472 1488 1480 1482
1509 1510 1510 1511 1512 1512 1511 1509 1507 1505 1503 1501 1501 1501 1502 1501 1501 1501 1504 1499 1495 1496 1496 1496 1494 1491 1495 1492 1491 1489 1483 1480 1478 1477 1478 1480 1480 1477 1477 1475 1473 1471 1471 1478 1475 1488 1469
1504 1506 1506 1507 1508 1509 1508 1507 1506 1504 1501 1500 1500 1500 1501 1501 1501 1501 1502 1497 1496 1497 1496 1495 1488 1488 1485 1485 1487 1487 1482 1479 1477 1478 1478 1474 1476 1478 1476 1477 1475 1471 1475 1474 1475 1480 1474
1500 1501 1502 1503 1504 1505 1506 1505 1504 1502 1500 1499 1499 1500 1500 1500 1501 1502 1498 1496 1496 1495 1495 1493 1491 1488 1485 1485 1484 1482 1482 1480 1479 1478 1478 1475 1473 1479 1477 1477 1471 1476 1473 1478 1476 1478 1462
1494 1497 1498 1499 1500 1501 1502 1503 1502 1501 1499 1498 1498 1499 1499 1500 1503 1500 1496 1495 1495 1493 1494 1493 1492 1489 1485 1484 1483 1482 1480 1481 1481 1480 1476 1476 1474 1477 1478 1481 1481 1477 1472 1468 1467 1477 1478
1489 1492 1494 1495 1496 1497 1499 1499 1499 1499 1498 1497 1496 1497 1498 1499 1495 1493 1494 1493 1493 1492 1492 1491 1489 1488 1486 1484 1483 1481 1481 1481 1481 1481 1477 1477 1476 1480 1480 1482 1481 1476 1478 1478 1475 1476 1475
1481 1486 1489 1491 1492 1493 1495 1496 1496 1496 1496 1496 1495 1495 1498 1498 1496 1493 1491 1490 1490 1490 1490 1489 1487 1486 1485 1484 1484 1480 1480 1481 1482 1481 1481 1479 1477 1471 1470 1469 1472 1474 1477 1478 1473 1471 1470
1477 1481 1484 1486 1488 1488 1490 1492 1493 1493 1493 1495 1492 1491 1490 1490 1491 1491 1491 1490 1488 1487 1489 1488 1485 1485 1484 1482 1482 1480 1481 1479 1479 1480 1480 1480 1476 1481 1481 1480 1478 1476 1474 1477 1475 1469 1467
1472 1475 1478 1482 1483 1485 1486 1487 1489 1490 1491 1492 1490 1489 1490 1489 1490 1490 1488 1485 1485 1485 1486 1484 1485 1484 1484 1482 1481 1480 1481 1481 1477 1480 1479 1481 1479 1482 1482 1482 1481 1477 1474 1476 1476 1477 1477
1467 1470 1472 1476 1479 1481 1482 1484 1486 1487 1489 1488 1486 1486 1487 1488 1488 1487 1481 1481 1483 1484 1485 1485 1485 1484 1483 1483 1484 1483 1484 1484 1482 1480 1479 1480 1480 1480 1474 1484 1480 1473 1464 1469 1469 1470 1465
1461 1465 1467 1470 1474 1476 1478 1479 1482 1484 1485 1486 1484 1485 1486 1482 1485 1482 1481 1481 1482 1483 1482 1484 1484 1484 1486 1484 1484 1484 1484 1484 1483 1483 1483 1481 1480 1484 1479 1481 1475 1457 1465 1464 1463 1464 1464
1455 1459 1462 1464 1468 1471 1474 1476 1478 1480 1482 1482 1481 1483 1483 1480 1481 1480 1480 1480 1481 1482 1483 1483 1484 1484 1485 1486 1483 1481 1480 1482 1483 1485 1484 1484 1480 1481 1477 1473 1460 1460 1465 1464 1460 1455 1459
1447 1452 1456 1459 1462 1466 1470 1473 1474 1477 1479 1480 1479 1480 1481 1482 1475 1477 1477 1479 1478 1480 1483 1483 1483 1484 1485 1485 1482 1477 1472 1475 1476 1481 1485 1484 1482 1476 1481 1473 1459 1457 1462 1463 1463 1453 1459
1442 1445 1450 1454 1457 1461 1465 1468 1470 1473 1475 1476 1476 1477 1479 1479 1475 1475 1475 1475 1476 1478 1478 1482 1483 1484 1485 1482 1479 1477 1474 1483 1473 1474 1479 1478 1479 1475 1475 1471 1456 1457 1462 1463 1458 1459 1458
1437 1437 1442 1447 1452 1456 1460 1464 1467 1470 1472 1473 1473 1474 1476 1476 1473 1473 1473 1473 1474 1475 1474 1479 1482 1482 1484 1481 1479 1476 1476 1477 1478 1476 1474 1470 1470 1470 1477 1473 1465 1459 1464 1458 1458 1458 1458
1433 1432 1434 1440 1446 1451 1455 1459 1463 1467 1469 1469 1470 1471 1472 1475 1472 1471 1470 1471 1472 1473 1474 1475 1476 1475 1476 1476 1481 1480 1477 1483 1476 1462 1480 1472 1466 1461 1464 1454 1456 1457 1457 1456 1457 1457 1457